1491181200.88,17635,15.5,74116.3,-2.15,-27.39,-27.35,0,*5C
1491181202.13,17636,15.5,74116.0,-2.15,-27.35,-27.23,0,*54
1491181203.37,17637,15.5,74114.5,-2.15,-27.51,-27.39,0,*5C
1491181204.63,17638,15.5,74112.3,-2.15,-27.23,-27.19,0,*54
1491181205.89,17639,15.5,74114.8,-2.15,-27.39,-27.35,0,*50
1491181207.13,17640,15.5,74112.8,-2.15,-27.51,-27.35,0,*50
1491181208.36,17641,15.5,74112.0,-2.15,-27.55,-27.35,0,*55
1491181209.6,17642,15.5,74116.8,-2.15,-27.55,-27.35,0,*56
1491181210.84,17643,15.5,74114.5,-2.15,-27.55,-27.35,0,*57
1491181212.07,17644,15.5,74116.8,-2.15,-27.55,-27.39,0,*5C
1491181213.33,17645,15.5,74114.5,-2.17,-27.55,-27.35,0,*53
1491181214.58,17646,15.5,74112.5,-2.17,-27.51,-27.23,0,*53
1491181215.83,17647,15.5,74114.8,-2.17,-27.51,-27.23,0,*52
1491181217.09,17648,15.5,74114.3,-2.17,-27.39,-27.13,0,*50
1491181218.34,17649,15.5,74114.5,-2.17,-27.35,-27.13,0,*5D
1491181219.61,17650,15.5,74114.5,-2.17,-27.19,-26.97,0,*56
1491181220.87,17651,15.5,74112.8,-2.17,-27.35,-27.03,0,*55
1491181222.1,17652,15.5,74112.0,-2.17,-27.51,-27.03,0,*54
1491181223.36,17653,15.5,74114.3,-2.13,-27.45,-27.03,0,*54
1491181224.59,17654,15.44,74110.0,-2.17,-27.51,-27.13,0,*53
1491181225.84,17655,15.5,74114.8,-2.17,-27.67,-27.19,0,*5D
1491181227.1,17656,15.5,74114.5,-2.17,-27.71,-27.35,0,*57
1491181228.35,17657,15.5,74114.0,-2.17,-27.71,-27.23,0,*51
1491181229.61,17658,15.5,74114.8,-2.17,-27.39,-27.03,0,*50
1491181230.84,17659,15.5,74114.5,-2.17,-27.51,-27.03,0,*5F
1491181232.12,17660,15.5,74114.8,-2.17,-27.23,-26.71,0,*54
1491181233.4,17661,15.5,74114.3,-2.17,-27.35,-26.81,0,*5D
1491181234.62,17662,15.5,74118.3,-2.19,-27.55,-26.93,0,*55
1491181235.88,17663,15.5,74116.0,-2.17,-27.67,-26.97,0,*5F
1491181237.09,17664,15.5,74114.8,-2.15,-27.55,-27.03,0,*57
1491181238.35,17665,15.5,74114.0,-2.15,-27.39,-26.71,0,*58
1491181239.58,17666,15.5,74114.3,-2.15,-27.35,-26.87,0,*5E
1491181240.79,17667,15.5,74116.0,-2.15,-27.55,-27.03,0,*54
1491181242.05,17668,15.5,74118.0,-2.17,-27.51,-26.97,0,*51
1491181243.26,17669,15.5,74114.0,-2.19,-27.71,-27.03,0,*50
1491181244.49,17670,15.5,74112.5,-2.17,-27.51,-26.87,0,*59
1491181245.74,17671,15.5,74114.5,-2.17,-27.39,-26.87,0,*56
1491181247.0,17672,15.5,74112.3,-2.17,-27.55,-26.81,0,*59
1491181248.22,17673,15.5,74114.3,-2.17,-27.55,-26.87,0,*5E
1491181249.45,17674,15.5,74114.5,-2.17,-27.51,-26.87,0,*5D
1491181250.71,17675,15.5,74118.5,-2.17,-27.67,-26.81,0,*5F
1491181251.95,17676,15.5,74114.5,-2.19,-27.61,-26.87,0,*52
1491181253.18,17677,15.5,74112.0,-2.19,-27.39,-26.61,0,*56
1491181254.43,17678,15.5,74114.5,-2.19,-27.23,-26.55,0,*55
1491181255.63,17679,15.5,74118.5,-2.19,-27.13,-26.39,0,*5D
1491181256.88,17680,15.5,74114.0,-2.17,-27.23,-26.49,0,*51
1491181258.16,17681,15.5,74114.5,-2.17,-27.35,-26.55,0,*5A
1491181259.39,17682,15.5,74114.5,-2.19,-27.29,-26.55,0,*5A
1491181260.66,17683,15.5,74112.0,-2.17,-27.35,-26.55,0,*58
1491181261.86,17684,15.5,74112.5,-2.19,-27.55,-26.61,0,*50
1491181263.09,17685,15.5,74112.3,-2.17,-27.51,-26.65,0,*5F
1491181264.32,17686,15.5,74112.8,-2.19,-27.45,-26.61,0,*53
1491181265.6,17687,15.5,74114.8,-2.17,-27.39,-26.55,0,*50
1491181266.82,17688,15.5,74110.5,-2.19,-27.51,-26.55,0,*5F
1491181268.1,17689,15.5,74114.3,-2.17,-27.39,-26.55,0,*5E
1491181269.35,17690,15.5,74112.5,-2.19,-27.45,-26.55,0,*53
1491181270.6,17691,15.5,74114.5,-2.17,-27.39,-26.49,0,*5A
1491181271.8,17692,15.5,74114.3,-2.19,-27.55,-26.61,0,*57
1491181273.04,17693,15.5,74114.8,-2.19,-27.71,-26.77,0,*57
1491181274.29,17694,15.5,74116.8,-2.17,-27.39,-26.49,0,*5F
1491181275.52,17695,15.44,74110.5,-2.19,-27.39,-26.39,0,*57
1491181276.77,17696,15.5,74112.5,-2.19,-27.23,-26.29,0,*5E
1491181277.98,17697,15.5,74116.3,-2.19,-27.13,-26.03,0,*54
1491181279.23,17698,15.5,74114.3,-2.17,-27.19,-26.07,0,*5B
1491181280.46,17699,15.5,74112.3,-2.19,-27.39,-26.39,0,*5B
1491181281.72,17700,15.5,74112.3,-2.19,-27.45,-26.55,0,*5B
1491181282.95,17701,15.5,74112.3,-2.19,-27.45,-26.39,0,*50
1491181284.19,17702,15.5,74112.8,-2.19,-27.45,-26.39,0,*53
1491181285.42,17703,15.5,74114.3,-2.19,-27.39,-26.39,0,*59
1491181286.67,17704,15.5,74112.3,-2.17,-27.23,-26.23,0,*50
1491181287.93,17705,15.5,74114.8,-2.19,-27.39,-26.29,0,*5E
1491181289.13,17706,15.5,74114.5,-2.19,-27.55,-26.39,0,*56
1491181290.36,17707,15.5,74110.8,-2.19,-27.39,-26.23,0,*56
1491181291.62,17708,15.5,74116.0,-2.19,-27.23,-26.13,0,*51
1491181292.87,17709,15.5,74112.8,-2.19,-27.39,-26.29,0,*52
1491181294.13,17710,15.5,74116.0,-2.19,-27.45,-26.29,0,*51
1491181295.34,17711,15.5,74114.8,-2.19,-27.29,-26.23,0,*50
1491181296.56,17712,15.5,74114.8,-2.19,-27.45,-26.23,0,*59
1491181297.79,17713,15.5,74110.8,-2.19,-27.45,-26.23,0,*58
1491181299.05,17714,15.5,74114.0,-2.19,-27.39,-26.29,0,*5E
1491181300.31,17715,15.5,74112.3,-2.23,-27.45,-26.33,0,*56
1491181301.55,17716,15.5,74112.0,-2.21,-27.29,-26.07,0,*5A
1491181302.81,17717,15.5,74114.0,-2.21,-27.19,-25.87,0,*53
1491181304.06,17718,15.5,74112.3,-2.21,-27.19,-25.87,0,*5C
1491181305.34,17719,15.5,74114.3,-2.21,-27.19,-25.71,0,*54
1491181306.58,17720,15.5,74112.8,-2.21,-27.03,-25.61,0,*54
1491181307.82,17721,15.5,74114.3,-2.21,-27.07,-25.87,0,*59
1491181309.08,17722,15.44,74108.8,-2.21,-27.23,-26.03,0,*53
1491181310.34,17723,15.5,74112.3,-2.21,-27.39,-26.07,0,*5D
1491181311.63,17724,15.5,74112.3,-2.21,-27.39,-26.13,0,*5F
1491181312.88,17725,15.5,74114.3,-2.21,-27.19,-25.87,0,*52
1491181314.09,17726,15.5,74110.8,-2.23,-27.07,-25.87,0,*5C
1491181315.35,17727,15.5,74110.5,-2.21,-27.39,-26.07,0,*59
1491181316.61,17728,15.5,74112.0,-2.21,-27.23,-26.03,0,*59
1491181317.9,17729,15.5,74114.0,-2.21,-27.39,-26.13,0,*52
1491181319.19,17730,15.5,74114.3,-2.21,-27.45,-26.29,0,*58
1491181320.47,17731,15.5,74110.8,-2.21,-27.45,-26.13,0,*50
1491181321.71,17732,15.5,74112.5,-2.21,-27.29,-25.91,0,*50
1491181322.97,17733,15.5,74112.5,-2.23,-27.23,-25.81,0,*58
1491181324.22,17734,15.5,74114.3,-2.21,-27.19,-25.87,0,*52
1491181325.47,17735,15.5,74112.0,-2.21,-27.19,-25.87,0,*53
1491181326.73,17736,15.5,74110.8,-2.23,-27.23,-25.97,0,*5A
1491181328.0,17737,15.5,74112.0,-2.23,-27.23,-25.75,0,*57
1491181329.24,17738,15.5,74114.8,-2.21,-27.07,-25.87,0,*51
1491181330.45,17739,15.5,74110.5,-2.23,-27.07,-25.65,0,*5E
1491181331.72,17740,15.5,74114.0,-2.21,-27.03,-25.71,0,*53
1491181332.99,17741,15.5,74108.3,-2.21,-27.07,-25.75,0,*52
1491181334.22,17742,15.5,74110.3,-2.23,-27.23,-26.07,0,*53
1491181335.49,17743,15.5,74110.3,-2.21,-27.03,-25.75,0,*54
1491181336.72,17744,15.5,74114.8,-2.23,-27.13,-25.81,0,*5B
1491181337.99,17745,15.5,74112.3,-2.21,-27.03,-25.71,0,*56
1491181339.23,17746,15.5,74110.3,-2.23,-26.93,-25.65,0,*5A
1491181340.47,17747,15.5,74110.5,-2.23,-26.93,-25.65,0,*5B
1491181341.71,17748,15.5,74112.0,-2.19,-27.03,-25.75,0,*54
1491181342.97,17749,15.5,74112.3,-2.19,-26.93,-25.71,0,*59
1491181344.23,17750,15.5,74114.3,-2.21,-26.93,-25.87,0,*53
1491181345.49,17751,15.5,74112.5,-2.21,-26.87,-25.75,0,*5A
1491181346.75,17752,15.5,74108.0,-2.21,-27.03,-25.75,0,*54
1491181348.02,17753,15.5,74110.0,-2.21,-26.87,-25.71,0,*5C
1491181349.28,17754,15.5,74112.5,-2.21,-26.93,-25.61,0,*5F
1491181350.54,17755,15.5,74114.3,-2.21,-26.87,-25.75,0,*5E
1491181351.81,17756,15.5,74112.3,-2.19,-26.93,-25.75,0,*53
1491181353.07,17757,15.5,74116.5,-2.19,-26.93,-25.75,0,*52
1491181354.27,17758,15.5,74112.0,-2.19,-27.03,-25.87,0,*58
1491181355.47,17759,15.5,74114.3,-2.19,-27.03,-25.87,0,*59
1491181356.68,17760,15.5,74114.8,-2.19,-27.07,-25.87,0,*57
1491181357.88,17761,15.5,74112.0,-2.19,-27.03,-25.91,0,*55
1491181359.09,17762,15.5,74116.8,-2.19,-27.03,-26.03,0,*5E
1491181360.3,17763,15.5,74114.8,-2.19,-27.07,-26.07,0,*5F
1491181361.54,17764,15.5,74112.3,-2.21,-27.07,-26.07,0,*53
1491181362.74,17765,15.5,74112.0,-2.19,-27.03,-26.07,0,*5D
1491181363.95,17766,15.5,74112.8,-2.19,-27.03,-26.07,0,*5E
1491181365.15,17767,15.5,74116.0,-2.19,-26.87,-25.87,0,*59
1491181366.38,17768,15.5,74112.3,-2.19,-26.93,-26.07,0,*58
1491181367.64,17769,15.5,74114.3,-2.21,-26.93,-26.07,0,*52
1491181368.87,17770,15.5,74112.5,-2.21,-26.87,-25.91,0,*53
1491181370.11,17771,15.5,74110.0,-2.23,-26.71,-25.87,0,*5E
1491181371.37,17772,15.5,74118.5,-2.21,-26.77,-26.03,0,*56
1491181372.64,17773,15.5,74114.3,-2.21,-26.93,-26.03,0,*5D
1491181373.87,17774,15.5,74112.5,-2.21,-26.87,-26.07,0,*5B
1491181375.13,17775,15.5,74112.8,-2.19,-26.93,-26.13,0,*51
1491181376.36,17776,15.5,74110.8,-2.19,-26.71,-25.91,0,*57
1491181377.57,17777,15.5,74112.3,-2.19,-26.61,-26.03,0,*5F
1491181378.79,17778,15.5,74114.3,-2.19,-26.71,-25.91,0,*59
1491181380.06,17779,15.5,74114.5,-2.21,-26.77,-26.07,0,*59
1491181381.35,17780,15.5,74112.8,-2.21,-26.77,-26.13,0,*5A
1491181382.6,17781,15.5,74114.8,-2.21,-26.87,-26.13,0,*54
1491181383.87,17782,15.5,74110.5,-2.21,-26.71,-26.03,0,*5F
1491181385.13,17783,15.5,74110.5,-2.21,-26.77,-26.23,0,*5A
1491181386.36,17784,15.5,74112.5,-2.19,-26.77,-26.07,0,*50
1491181387.62,17785,15.5,74114.3,-2.21,-26.71,-26.07,0,*5C
1491181388.88,17786,15.5,74112.0,-2.21,-26.61,-26.13,0,*5B
1491181390.14,17787,15.44,74108.8,-2.21,-26.77,-26.23,0,*5E
1491181391.38,17788,15.5,74112.0,-2.21,-26.61,-26.23,0,*56
1491181392.63,17789,15.5,74108.8,-2.21,-26.71,-26.23,0,*56
1491181393.91,17790,15.5,74108.5,-2.21,-26.55,-26.13,0,*5B
1491181395.17,17791,15.5,74110.8,-2.21,-26.71,-26.23,0,*5F
1491181396.44,17792,15.5,74112.0,-2.23,-26.77,-26.29,0,*52
1491181397.7,17793,15.5,74108.3,-2.21,-26.39,-26.13,0,*52
1491181398.95,17794,15.44,74108.0,-2.21,-26.55,-26.23,0,*5C
1491181400.2,17795,15.5,74112.0,-2.19,-26.55,-26.29,0,*5C
1491181401.41,17796,15.5,74114.5,-2.19,-26.61,-26.45,0,*52
1491181402.63,17797,15.5,74112.0,-2.19,-26.71,-26.45,0,*52
1491181403.86,17798,15.5,74110.3,-2.19,-26.71,-26.39,0,*56
1491181405.09,17799,15.5,74110.5,-2.21,-26.61,-26.45,0,*56
1491181406.35,17800,15.5,74112.3,-2.21,-26.71,-26.45,0,*58
1491181407.59,17801,15.44,74110.3,-2.23,-26.77,-26.49,0,*51
1491181408.79,17802,15.5,74112.0,-2.23,-26.61,-26.45,0,*59
1491181410.03,17803,15.5,74114.5,-2.23,-26.77,-26.49,0,*53
1491181411.24,17804,15.44,74108.8,-2.23,-26.61,-26.49,0,*53
1491181412.45,17805,15.5,74114.5,-2.23,-26.61,-26.61,0,*58
1491181413.69,17806,15.5,74114.0,-2.23,-26.33,-26.45,0,*5A
1491181414.92,17807,15.5,74110.0,-2.21,-26.39,-26.45,0,*53
1491181416.13,17808,15.5,74112.3,-2.23,-26.49,-26.61,0,*5F
1491181417.35,17809,15.5,74108.0,-2.23,-26.65,-26.65,0,*54
1491181418.61,17810,15.5,74110.5,-2.21,-26.39,-26.55,0,*54
1491181419.82,17811,15.5,74114.3,-2.23,-26.49,-26.65,0,*53
1491181421.08,17812,15.5,74114.5,-2.23,-26.55,-26.77,0,*5E
1491181422.29,17813,15.5,74112.0,-2.23,-26.45,-26.61,0,*59
1491181423.52,17814,15.44,74108.8,-2.23,-26.17,-26.49,0,*53
1491181424.76,17815,15.44,74110.8,-2.23,-26.17,-26.49,0,*52
1491181426.0,17816,15.5,74112.8,-2.23,-26.33,-26.61,0,*5D
1491181427.26,17817,15.5,74114.3,-2.23,-26.29,-26.77,0,*50
1491181428.53,17818,15.5,74114.8,-2.23,-26.17,-26.77,0,*52
1491181429.76,17819,15.5,74112.0,-2.23,-26.13,-26.61,0,*50
1491181430.99,17820,15.5,74114.0,-2.23,-26.13,-26.65,0,*5E
1491181432.23,17821,15.5,74112.0,-2.23,-26.13,-26.65,0,*5F
1491181433.49,17822,15.5,74112.3,-2.23,-26.13,-26.81,0,*56
1491181434.75,17823,15.5,74112.8,-2.21,-26.07,-26.77,0,*59
1491181436.01,17824,15.5,74112.0,-2.23,-26.13,-26.93,0,*53
1491181437.27,17825,15.5,74108.8,-2.27,-26.13,-26.93,0,*56
1491181438.48,17826,15.5,74112.8,-2.23,-25.91,-26.65,0,*51
1491181439.71,17827,15.5,74114.5,-2.27,-26.07,-26.77,0,*5B
1491181440.95,17828,15.5,74114.8,-2.27,-25.91,-26.77,0,*58
1491181442.21,17829,15.5,74114.8,-2.27,-25.97,-26.81,0,*56
1491181443.44,17830,15.44,74110.5,-2.23,-25.91,-26.93,0,*5F
1491181444.68,17831,15.5,74112.3,-2.23,-25.65,-26.77,0,*5F
1491181445.94,17832,15.5,74114.3,-2.27,-25.75,-26.77,0,*59
1491181447.18,17833,15.5,74110.0,-2.27,-25.61,-26.77,0,*5D
1491181448.39,17834,15.5,74114.3,-2.23,-25.49,-26.61,0,*53
1491181449.6,17835,15.5,74110.3,-2.23,-25.49,-26.65,0,*56
1491181450.84,17836,15.5,74112.0,-2.23,-25.49,-26.77,0,*56
1491181452.07,17837,15.44,74108.8,-2.23,-25.61,-26.93,0,*57
1491181453.31,17838,15.5,74112.3,-2.23,-25.49,-26.93,0,*52
1491181454.57,17839,15.5,74114.5,-2.21,-25.45,-27.03,0,*55
1491181455.83,17840,15.5,74110.0,-2.21,-25.55,-27.03,0,*5A
1491181457.07,17841,15.5,74112.5,-2.23,-25.49,-26.97,0,*58
1491181458.28,17842,15.44,74110.3,-2.23,-25.49,-27.07,0,*53
1491181459.53,17843,15.5,74112.8,-2.27,-25.49,-26.97,0,*5E
1491181460.76,17844,15.44,74108.3,-2.27,-25.35,-26.97,0,*52
1491181461.99,17845,15.5,74114.0,-2.27,-25.35,-26.97,0,*53
1491181463.25,17846,15.44,74110.3,-2.27,-25.29,-26.97,0,*5D
1491181464.48,17847,15.44,74108.8,-2.27,-25.19,-26.81,0,*58
1491181465.69,17848,15.5,74114.0,-2.27,-24.97,-26.65,0,*5A
1491181466.92,17849,15.44,74110.8,-2.27,-25.13,-26.97,0,*5B
1491181468.16,17850,15.44,74108.0,-2.27,-25.09,-26.93,0,*5C
1491181469.39,17851,15.5,74108.8,-2.27,-24.97,-26.81,0,*58
1491181470.62,17852,15.44,74110.0,-2.27,-24.93,-26.77,0,*56
1491181471.88,17853,15.44,74110.0,-2.27,-24.83,-26.77,0,*56
1491181473.12,17854,15.5,74110.3,-2.27,-24.77,-26.81,0,*53
1491181474.36,17855,15.5,74108.8,-2.27,-24.77,-26.81,0,*52
1491181475.62,17856,15.5,74110.0,-2.27,-24.67,-26.77,0,*59
1491181476.88,17857,15.5,74108.0,-2.27,-24.67,-26.81,0,*51
1491181478.12,17858,15.5,74114.0,-2.27,-24.61,-26.77,0,*51
1491181479.34,17859,15.5,74110.5,-2.27,-24.35,-26.61,0,*56
1491181480.55,17860,15.44,74108.0,-2.27,-24.31,-26.61,0,*58
1491181481.77,17861,15.5,74108.8,-2.23,-24.35,-26.65,0,*5D
1491181482.98,17862,15.5,74110.8,-2.23,-24.35,-26.65,0,*5E
1491181484.2,17863,15.5,74108.8,-2.23,-24.31,-26.65,0,*5B
1491181485.44,17864,15.5,74108.5,-2.23,-24.21,-26.61,0,*59
1491181486.72,17865,15.5,74112.0,-2.21,-24.15,-26.55,0,*5A
1491181487.93,17866,15.5,74110.3,-2.23,-24.05,-26.45,0,*5B
1491181489.19,17867,15.5,74110.8,-2.23,-23.85,-26.29,0,*5F
1491181490.42,17868,15.5,74114.0,-2.23,-23.69,-26.45,0,*58
1491181491.66,17869,15.44,74108.0,-2.21,-23.59,-26.23,0,*58
1491181492.92,17870,15.5,74114.3,-2.23,-23.65,-26.17,0,*5A
1491181494.17,17871,15.5,74110.5,-2.23,-23.69,-26.33,0,*51
1491181495.44,17872,15.44,74106.0,-2.21,-23.59,-26.29,0,*58
1491181496.68,17873,15.5,74114.3,-2.21,-23.59,-26.39,0,*58
1491181497.91,17874,15.44,74104.8,-2.23,-23.65,-26.49,0,*55
1491181499.17,17875,15.5,74112.8,-2.21,-23.43,-26.13,0,*5D
1491181500.44,17876,15.44,74110.5,-2.23,-23.49,-26.33,0,*54
1491181501.68,17877,15.5,74108.3,-2.21,-23.43,-26.39,0,*57
1491181502.91,17878,15.44,74108.0,-2.23,-23.39,-26.29,0,*56
1491181504.18,17879,15.5,74114.0,-2.21,-23.33,-26.39,0,*5E
1491181505.38,17880,15.5,74110.5,-2.23,-23.39,-26.45,0,*5B
1491181506.61,17881,15.5,74112.3,-2.23,-23.49,-26.49,0,*51
1491181507.9,17882,15.44,74110.0,-2.21,-23.19,-26.29,0,*53
1491181509.16,17883,15.5,74112.0,-2.23,-23.23,-26.17,0,*54
1491181510.38,17884,15.5,74114.8,-2.23,-22.97,-26.07,0,*5C
1491181511.64,17885,15.5,74114.3,-2.21,-22.97,-26.13,0,*5A
1491181512.9,17886,15.5,74114.0,-2.21,-23.13,-26.13,0,*54
1491181514.16,17887,15.44,74110.5,-2.21,-23.03,-26.23,0,*57
1491181515.4,17888,15.5,74112.8,-2.23,-23.09,-26.33,0,*51
1491181516.66,17889,15.44,74110.0,-2.21,-23.03,-26.23,0,*59
1491181517.93,17890,15.5,74112.8,-2.21,-22.77,-26.07,0,*55
1491181519.17,17891,15.5,74114.5,-2.23,-22.83,-25.97,0,*57
1491181520.38,17892,15.44,74110.0,-2.23,-22.57,-25.91,0,*5B
1491181521.64,17893,15.44,74108.5,-2.21,-22.63,-25.75,0,*55
1491181522.85,17894,15.5,74112.3,-2.23,-22.57,-25.91,0,*5D
1491181524.14,17895,15.5,74108.5,-2.21,-22.47,-25.75,0,*55
1491181525.36,17896,15.5,74110.0,-2.23,-22.57,-25.91,0,*5F
1491181526.62,17897,15.5,74112.3,-2.21,-22.47,-25.87,0,*5A
1491181527.86,17898,15.5,74114.3,-2.23,-22.67,-25.97,0,*54
1491181529.15,17899,15.44,74110.8,-2.21,-22.47,-25.75,0,*59
1491181530.39,17900,15.5,74114.8,-2.23,-22.37,-25.75,0,*5D
1491181531.6,17901,15.44,74108.5,-2.23,-22.07,-25.49,0,*50
1491181532.82,17902,15.44,74110.8,-2.23,-22.11,-25.49,0,*54
1491181534.03,17903,15.44,74108.5,-2.23,-21.93,-25.19,0,*59
1491181535.27,17904,15.44,74108.3,-2.23,-22.11,-25.45,0,*5E
1491181536.5,17905,15.5,74110.0,-2.23,-22.03,-25.45,0,*5C
1491181537.76,17906,15.44,74108.5,-2.21,-21.87,-25.39,0,*59
1491181539.05,17907,15.44,74108.8,-2.21,-21.97,-25.29,0,*58
1491181540.25,17908,15.5,74112.3,-2.23,-22.03,-25.35,0,*56
1491181541.48,17909,15.5,74112.5,-2.23,-22.07,-25.29,0,*5E
1491181542.69,17910,15.5,74112.3,-2.23,-22.03,-25.19,0,*51
1491181543.92,17911,15.5,74110.3,-2.23,-22.03,-25.29,0,*53
1491181545.16,17912,15.5,74112.8,-2.23,-21.87,-25.19,0,*5C
1491181546.42,17913,15.44,74108.0,-2.23,-21.97,-25.29,0,*5F
1491181547.63,17914,15.5,74112.5,-2.23,-22.03,-25.35,0,*5B
1491181548.84,17915,15.5,74110.5,-2.23,-21.77,-25.09,0,*55
1491181550.11,17916,15.5,74110.5,-2.21,-21.67,-24.93,0,*57
1491181551.32,17917,15.5,74114.0,-2.23,-21.73,-24.97,0,*55
1491181552.53,17918,15.44,74108.5,-2.23,-21.73,-25.09,0,*5C
1491181553.8,17919,15.5,74112.3,-2.21,-21.83,-25.09,0,*50
1491181555.04,17920,15.44,74108.8,-2.23,-21.87,-25.13,0,*57
1491181556.25,17921,15.44,74110.8,-2.23,-21.77,-24.97,0,*54
1491181557.54,17922,15.44,74112.5,-2.21,-21.67,-24.71,0,*5C
1491181558.75,17923,15.5,74114.0,-2.23,-21.47,-24.61,0,*5C
1491181560.0,17924,15.44,74112.3,-2.23,-21.57,-24.67,0,*5C
1491181561.24,17925,15.44,74110.0,-2.23,-21.33,-24.47,0,*5D
1491181562.51,17926,15.44,74110.3,-2.23,-21.27,-24.21,0,*5B
1491181563.74,17927,15.44,74110.5,-2.23,-21.27,-24.47,0,*5A
1491181565.03,17928,15.44,74110.8,-2.21,-21.23,-24.25,0,*57
1491181566.29,17929,15.44,74110.5,-2.21,-21.23,-24.31,0,*53
1491181567.57,17930,15.5,74108.8,-2.21,-21.27,-24.25,0,*5A
1491181568.86,17931,15.5,74110.0,-2.21,-21.27,-24.25,0,*5B
1491181570.15,17932,15.44,74110.0,-2.21,-21.27,-24.25,0,*58
1491181571.42,17933,15.44,74106.8,-2.21,-21.23,-23.95,0,*51
1491181572.68,17934,15.44,74110.5,-2.21,-21.39,-24.25,0,*51
1491181573.89,17935,15.44,74106.8,-2.23,-21.47,-24.31,0,*5E
1491181575.17,17936,15.44,74108.3,-2.21,-21.27,-24.15,0,*5F
1491181576.43,17937,15.44,74110.8,-2.23,-21.33,-24.21,0,*5E
1491181577.64,17938,15.5,74108.0,-2.23,-21.43,-24.05,0,*50
1491181578.89,17939,15.44,74110.8,-2.21,-21.39,-24.15,0,*5F
1491181580.14,17940,15.5,74112.3,-2.21,-21.43,-24.15,0,*5C
1491181581.4,17941,15.44,74110.0,-2.21,-21.23,-23.89,0,*59
1491181582.66,17942,15.44,74106.0,-2.23,-21.33,-23.85,0,*55
1491181583.89,17943,15.5,74112.8,-2.21,-21.13,-23.59,0,*55
1491181585.14,17944,15.5,74110.5,-2.21,-21.13,-23.65,0,*5D
1491181586.38,17945,15.5,74112.3,-2.23,-21.27,-23.79,0,*54
1491181587.61,17946,15.5,74112.5,-2.21,-21.39,-23.79,0,*5A
1491181588.86,17947,15.44,74108.0,-2.21,-21.39,-23.95,0,*59
1491181590.09,17948,15.5,74112.8,-2.21,-21.39,-23.75,0,*58
1491181591.34,17949,15.44,74110.3,-2.21,-21.39,-23.65,0,*58
1491181592.6,17950,15.5,74112.8,-2.21,-21.27,-23.59,0,*50
1491181593.85,17951,15.5,74112.3,-2.21,-21.39,-23.65,0,*51
1491181595.11,17952,15.5,74114.0,-2.21,-21.27,-23.59,0,*52
1491181596.38,17953,15.5,74112.8,-2.21,-21.23,-23.43,0,*5C
1491181597.63,17954,15.44,74110.3,-2.21,-21.13,-23.49,0,*52
1491181598.89,17955,15.44,74112.0,-2.21,-21.23,-23.59,0,*51
1491181600.13,17956,15.44,74112.0,-2.19,-21.53,-23.75,0,*50
1491181601.36,17957,15.44,74112.3,-2.19,-21.67,-23.75,0,*56
1491181602.58,17958,15.44,74110.5,-2.17,-21.39,-23.59,0,*52
1491181603.84,17959,15.5,74114.8,-2.19,-21.53,-23.65,0,*5E
1491181605.04,17960,15.44,74110.8,-2.19,-21.43,-23.59,0,*5A
1491181606.24,17961,15.5,74112.0,-2.19,-21.43,-23.59,0,*5B
1491181607.48,17962,15.5,74110.3,-2.19,-21.57,-23.65,0,*52
1491181608.72,17963,15.44,74112.5,-2.19,-21.53,-23.59,0,*58
1491181610.0,17964,15.5,74112.0,-2.21,-21.53,-23.65,0,*5B
1491181611.23,17965,15.44,74110.5,-2.21,-21.43,-23.59,0,*54
1491181612.48,17966,15.44,74110.8,-2.19,-21.27,-23.29,0,*59
1491181613.69,17967,15.5,74114.8,-2.19,-21.39,-23.43,0,*5B
1491181614.95,17968,15.5,74114.0,-2.19,-21.53,-23.49,0,*52
1491181616.17,17969,15.44,74114.5,-2.19,-21.43,-23.33,0,*5F
1491181617.4,17970,15.5,74112.3,-2.19,-21.43,-23.33,0,*57
1491181618.64,17971,15.44,74112.5,-2.19,-21.53,-23.43,0,*50
1491181619.89,17972,15.44,74110.8,-2.19,-21.57,-23.49,0,*5D
1491181621.14,17973,15.44,74112.0,-2.19,-21.57,-23.49,0,*5C
1491181622.38,17974,15.5,74112.3,-2.19,-21.67,-23.43,0,*52
1491181623.6,17975,15.44,74110.5,-2.17,-21.63,-23.39,0,*54
1491181624.86,17976,15.44,74112.0,-2.17,-21.53,-23.39,0,*54
1491181626.12,17977,15.44,74108.5,-2.17,-21.39,-23.23,0,*52
1491181627.37,17978,15.44,74108.3,-2.19,-21.53,-23.29,0,*55
1491181628.6,17979,15.44,74110.5,-2.17,-21.47,-23.13,0,*56
1491181629.86,17980,15.44,74108.5,-2.17,-21.67,-23.39,0,*5A
1491181631.07,17981,15.44,74110.5,-2.19,-21.73,-23.43,0,*5D
1491181632.33,17982,15.5,74114.0,-2.17,-21.53,-23.13,0,*57
1491181633.62,17983,15.5,74114.3,-2.17,-21.53,-23.23,0,*55
1491181634.87,17984,15.44,74108.5,-2.17,-21.77,-23.29,0,*5E
1491181636.13,17985,15.44,74110.0,-2.17,-21.77,-23.23,0,*55
1491181637.37,17986,15.44,74108.5,-2.17,-21.47,-22.97,0,*5B
1491181638.63,17987,15.44,74108.3,-2.17,-21.53,-23.09,0,*59
1491181639.86,17988,15.44,74108.8,-2.19,-21.73,-23.19,0,*5B
1491181641.12,17989,15.44,74108.5,-2.17,-21.67,-23.13,0,*5B
1491181642.38,17990,15.44,74110.3,-2.17,-21.77,-23.23,0,*51
1491181643.62,17991,15.44,74110.8,-2.15,-21.67,-22.97,0,*5D
1491181644.86,17992,15.5,74112.3,-2.17,-21.93,-23.13,0,*5A
1491181646.09,17993,15.5,74112.0,-2.15,-21.83,-23.13,0,*58
1491181647.3,17994,15.44,74108.0,-2.15,-21.77,-23.13,0,*54
1491181648.54,17995,15.44,74108.8,-2.15,-21.67,-22.97,0,*59
1491181649.76,17996,15.44,74110.5,-2.15,-21.77,-22.97,0,*5B
1491181650.97,17997,15.5,74112.0,-2.15,-21.77,-22.93,0,*5E
1491181652.23,17998,15.5,74114.8,-2.13,-21.73,-22.73,0,*5D
1491181653.49,17999,15.44,74108.5,-2.15,-21.67,-22.77,0,*5B
1491181654.7,18000,15.44,74110.3,-2.15,-21.77,-22.87,0,*53
1491181655.91,18001,15.44,74110.8,-2.15,-21.77,-22.87,0,*52
1491181657.15,18002,15.44,74110.3,-2.15,-21.83,-22.87,0,*5A
1491181658.4,18003,15.44,74108.3,-2.13,-21.77,-22.73,0,*5D
1491181659.62,18004,15.44,74110.5,-2.15,-21.93,-22.87,0,*5D
1491181660.85,18005,15.44,74110.8,-2.15,-21.77,-22.73,0,*5D
1491181662.09,18006,15.44,74108.3,-2.15,-21.83,-22.63,0,*54
1491181663.32,18007,15.44,74110.8,-2.13,-21.77,-22.57,0,*5F
1491181664.55,18008,15.44,74110.5,-2.15,-21.93,-22.73,0,*5A
1491181665.79,18009,15.44,74110.8,-2.15,-21.83,-22.63,0,*5B
1491181667.06,18010,15.44,74106.8,-2.15,-21.67,-22.31,0,*5E
1491181668.28,18011,15.44,74110.5,-2.13,-21.63,-22.37,0,*5B
1491181669.55,18012,15.44,74108.0,-2.15,-21.67,-22.31,0,*5C
1491181670.78,18013,15.44,74106.0,-2.15,-21.67,-22.41,0,*5A
1491181672.04,18014,15.5,74108.3,-2.13,-21.67,-22.11,0,*5E
1491181673.31,18015,15.44,74110.3,-2.15,-21.67,-22.17,0,*5F
1491181674.55,18016,15.44,74108.3,-2.15,-21.53,-22.03,0,*5E
1491181675.78,18017,15.44,74110.0,-2.15,-21.47,-21.97,0,*54
1491181677.01,18018,15.44,74108.0,-2.11,-21.39,-21.73,0,*5C
1491181678.26,18019,15.44,74108.5,-2.11,-21.57,-21.93,0,*5B
1491181679.52,18020,15.44,74108.0,-2.11,-21.43,-21.67,0,*5F
1491181680.78,18021,15.44,74106.0,-2.11,-21.39,-21.53,0,*54
1491181682.03,18022,15.5,74112.8,-2.11,-21.43,-21.67,0,*5D
1491181683.28,18023,15.44,74110.0,-2.11,-21.39,-21.57,0,*52
1491181684.54,18024,15.5,74110.3,-2.11,-21.27,-21.43,0,*5F
1491181685.79,18025,15.44,74108.0,-2.11,-21.27,-21.43,0,*5E
1491181687.03,18026,15.44,74110.5,-2.09,-21.23,-21.39,0,*5D
1491181688.29,18027,15.44,74104.8,-2.11,-21.27,-21.39,0,*51
1491181689.54,18028,15.44,74108.5,-2.11,-21.23,-21.13,0,*52
1491181690.81,18029,15.44,74108.8,-2.11,-21.39,-21.23,0,*5B
1491181692.04,18030,15.44,74106.0,-2.07,-21.09,-20.93,0,*5D
1491181693.28,18031,15.5,74112.8,-2.07,-21.09,-20.89,0,*57
1491181694.5,18032,15.44,74104.5,-2.05,-21.09,-20.89,0,*56
1491181695.73,18033,15.44,74106.3,-2.07,-21.09,-20.73,0,*50
1491181696.99,18034,15.44,74108.3,-2.07,-21.17,-20.79,0,*52
1491181698.22,18035,15.44,74106.8,-2.05,-21.17,-20.79,0,*51
1491181699.46,18036,15.44,74108.3,-2.05,-21.17,-20.79,0,*52
1491181700.7,18037,15.44,74108.3,-2.07,-21.09,-20.59,0,*5C
1491181701.94,18038,15.44,74104.0,-2.07,-21.17,-20.59,0,*5C
1491181703.2,18039,15.44,74106.0,-2.07,-21.09,-20.53,0,*58